QPF
0.01 0.00 0.00 0.01 0.01 0.00 0.01 0.01 0.03 0.03 0.04 0.03 0.03 0.04 0.03 0.02 0.02 0.01 0.01 0.02 0.02 0.02 0.02 0.02 0.02 0.02 0.02 0.02 0.03 0.04 0.03 0.03 0.03 0.05 0.06 0.07 0.07 0.07 0.06 0.05 0.05 0.03 0.04 0.03
0.01 0.00 0.00 0.00 0.00 0.00 0.00 0.01 0.01 0.02 0.03 0.02 0.02 0.03 0.04 0.03 0.02 0.01 0.01 0.01 0.02 0.02 0.02 0.03 0.02 0.02 0.02 0.03 0.04 0.03 0.03 0.03 0.04 0.06 0.07 0.07 0.07 0.06 0.06 0.06 0.05 0.04 0.04 0.03
0.03 0.00 0.01 0.02 0.00 0.00 0.01 0.02 0.02 0.04 0.05 0.02 0.02 0.05 0.08 0.06 0.03 0.03 0.02 0.01 0.02 0.03 0.03 0.03 0.03 0.03 0.03 0.03 0.03 0.03 0.02 0.02 0.03 0.04 0.05 0.06 0.06 0.06 0.07 0.08 0.07 0.06 0.05 0.04
0.04 0.04 0.05 0.03 0.00 0.00 0.01 0.02 0.02 0.03 0.04 0.03 0.01 0.03 0.02 0.02 0.02 0.02 0.02 0.02 0.03 0.04 0.04 0.04 0.03 0.03 0.02 0.03 0.04 0.03 0.02 0.02 0.02 0.03 0.03 0.04 0.05 0.06 0.08 0.08 0.09 0.08 0.06 0.05
0.05 0.06 0.05 0.02 0.01 0.00 0.01 0.03 0.02 0.02 0.03 0.02 0.01 0.01 0.01 0.01 0.01 0.01 0.01 0.02 0.03 0.04 0.04 0.04 0.04 0.04 0.03 0.03 0.04 0.03 0.02 0.02 0.03 0.03 0.04 0.05 0.06 0.07 0.08 0.08 0.08 0.07 0.06 0.06
0.05 0.07 0.07 0.04 0.01 0.00 0.02 0.04 0.02 0.01 0.02 0.01 0.01 0.03 0.02 0.01 0.01 0.01 0.01 0.01 0.02 0.02 0.03 0.06 0.06 0.05 0.05 0.05 0.05 0.04 0.03 0.03 0.03 0.03 0.04 0.04 0.04 0.05 0.06 0.07 0.08 0.07 0.06 0.07
0.06 0.07 0.06 0.02 0.02 0.03 0.05 0.05 0.02 0.02 0.03 0.02 0.01 0.02 0.01 0.00 0.01 0.01 0.01 0.01 0.01 0.00 0.02 0.04 0.06 0.07 0.08 0.05 0.04 0.05 0.05 0.05 0.05 0.04 0.04 0.05 0.05 0.05 0.06 0.07 0.08 0.08 0.07 0.07
0.06 0.09 0.07 0.03 0.03 0.04 0.04 0.02 0.01 0.01 0.01 0.01 0.01 0.00 0.00 0.01 0.01 0.01 0.02 0.01 0.00 0.01 0.01 0.02 0.03 0.05 0.07 0.06 0.04 0.04 0.05 0.07 0.07 0.06 0.05 0.05 0.07 0.08 0.08 0.09 0.08 0.07 0.07 0.06
0.07 0.08 0.05 0.02 0.02 0.01 0.01 0.01 0.01 0.01 0.00 0.00 0.00 0.00 0.00 0.01 0.01 0.01 0.01 0.01 0.01 0.01 0.01 0.01 0.02 0.03 0.04 0.05 0.05 0.05 0.05 0.04 0.04 0.03 0.04 0.05 0.06 0.07 0.06 0.05 0.05 0.04 0.04 0.03
0.08 0.06 0.03 0.02 0.01 0.01 0.01 0.01 0.01 0.01 0.00 0.00 0.00 0.00 0.01 0.01 0.01 0.00 0.00 0.01 0.01 0.02 0.01 0.01 0.02 0.02 0.03 0.04 0.04 0.05 0.05 0.04 0.02 0.02 0.03 0.03 0.03 0.03 0.03 0.03 0.04 0.04 0.03 0.03
0.08 0.06 0.04 0.04 0.02 0.01 0.01 0.01 0.00 0.00 0.00 0.00 0.00 0.00 0.00 0.00 0.00 0.00 0.00 0.01 0.01 0.02 0.02 0.02 0.03 0.03 0.03 0.03 0.03 0.04 0.05 0.04 0.03 0.03 0.03 0.02 0.02 0.02 0.02 0.02 0.02 0.02 0.02 0.02
0.06 0.06 0.05 0.05 0.04 0.03 0.02 0.01 0.01 0.00 0.00 0.00 0.00 0.00 0.00 0.00 0.00 0.00 0.01 0.02 0.02 0.02 0.01 0.01 0.02 0.02 0.02 0.02 0.02 0.03 0.03 0.04 0.04 0.03 0.03 0.02 0.02 0.01 0.01 0.01 0.01 0.01 0.00 0.00
0.02 0.03 0.04 0.03 0.03 0.03 0.03 0.02 0.01 0.00 0.00 0.00 0.00 0.00 0.00 0.00 0.00 0.00 0.00 0.01 0.01 0.01 0.01 0.00 0.00 0.01 0.02 0.02 0.02 0.03 0.03 0.03 0.03 0.02 0.02 0.02 0.02 0.02 0.02 0.01 0.01 0.00 0.00 0.00
0.02 0.02 0.02 0.02 0.02 0.03 0.03 0.03 0.02 0.01 0.00 0.00 0.00 0.00 0.00 0.00 0.00 0.00 0.01 0.01 0.01 0.00 0.00 0.00 0.00 0.01 0.01 0.01 0.01 0.02 0.01 0.01 0.01 0.01 0.01 0.01 0.01 0.02 0.02 0.01 0.02 0.02 0.01 0.00
0.01 0.01 0.01 0.02 0.03 0.03 0.04 0.03 0.01 0.00 0.00 0.00 0.00 0.00 0.00 0.00 0.00 0.00 0.01 0.01 0.01 0.00 0.00 0.00 0.01 0.01 0.01 0.01 0.01 0.01 0.02 0.01 0.01 0.01 0.00 0.00 0.00 0.00 0.01 0.01 0.01 0.01 0.01 0.01
0.00 0.00 0.01 0.01 0.03 0.03 0.02 0.02 0.01 0.00 0.00 0.00 0.00 0.00 0.00 0.00 0.00 0.00 0.00 0.00 0.00 0.00 0.00 0.01 0.01 0.01 0.01 0.01 0.00 0.00 0.01 0.01 0.01 0.00 0.00 0.00 0.00 0.00 0.01 0.01 0.01 0.01 0.01 0.01
0.00 0.00 0.01 0.01 0.02 0.03 0.02 0.01 0.01 0.00 0.00 0.00 0.00 0.00 0.00 0.00 0.00 0.00 0.00 0.00 0.00 0.00 0.00 0.00 0.01 0.01 0.00 0.00 0.00 0.00 0.00 0.00 0.00 0.00 0.00 0.00 0.00 0.01 0.01 0.02 0.01 0.01 0.01 0.00
0.00 0.00 0.00 0.01 0.02 0.03 0.02 0.01 0.00 0.00 0.00 0.00 0.00 0.00 0.00 0.00 0.00 0.00 0.00 0.00 0.00 0.00 0.00 0.01 0.01 0.00 0.00 0.00 0.00 0.00 0.00 0.00 0.00 0.00 0.00 0.00 0.00 0.01 0.01 0.02 0.02 0.02 0.02 0.01
0.00 0.00 0.00 0.01 0.02 0.03 0.03 0.02 0.00 0.00 0.00 0.00 0.00 0.00 0.00 0.00 0.00 0.01 0.01 0.01 0.01 0.01 0.01 0.01 0.01 0.01 0.00 0.00 0.00 0.00 0.00 0.00 0.00 0.00 0.00 0.00 0.00 0.01 0.01 0.01 0.02 0.02 0.02 0.02
0.00 0.00 0.01 0.01 0.02 0.03 0.02 0.01 0.00 0.00 0.00 0.00 0.00 0.00 0.00 0.00 0.00 0.00 0.01 0.01 0.01 0.01 0.01 0.00 0.01 0.01 0.01 0.00 0.00 0.00 0.00 0.00 0.00 0.00 0.00 0.00 0.00 0.00 0.01 0.01 0.01 0.02 0.03 0.03
0.00 0.00 0.00 0.01 0.01 0.02 0.01 0.01 0.00 0.00 0.00 0.00 0.00 0.00 0.00 0.00 0.00 0.00 0.00 0.00 0.00 0.00 0.00 0.00 0.00 0.00 0.00 0.00 0.00 0.00 0.00 0.00 0.00 0.00 0.00 0.00 0.00 0.00 0.01 0.01 0.02 0.02 0.03 0.03
0.01 0.00 0.00 0.01 0.01 0.01 0.01 0.00 0.00 0.00 0.00 0.00 0.00 0.00 0.01 0.01 0.00 0.00 0.00 0.00 0.00 0.00 0.00 0.00 0.00 0.00 0.00 0.00 0.00 0.00 0.00 0.00 0.00 0.00 0.00 0.00 0.00 0.00 0.01 0.01 0.01 0.02 0.02 0.02
0.01 0.00 0.01 0.02 0.02 0.01 0.01 0.00 0.00 0.00 0.00 0.00 0.00 0.00 0.01 0.01 0.00 0.00 0.00 0.00 0.00 0.00 0.00 0.00 0.00 0.00 0.00 0.00 0.00 0.00 0.00 0.00 0.00 0.00 0.00 0.00 0.00 0.00 0.00 0.01 0.01 0.01 0.02 0.03
0.01 0.01 0.02 0.02 0.02 0.01 0.01 0.00 0.00 0.00 0.00 0.00 0.00 0.00 0.00 0.00 0.00 0.00 0.00 0.00 0.00 0.00 0.00 0.00 0.00 0.00 0.00 0.00 0.00 0.00 0.00 0.00 0.00 0.00 0.00 0.00 0.00 0.00 0.00 0.00 0.01 0.01 0.01 0.01
0.01 0.01 0.02 0.02 0.02 0.01 0.01 0.00 0.00 0.00 0.00 0.00 0.00 0.00 0.00 0.00 0.00 0.00 0.00 0.00 0.00 0.00 0.00 0.00 0.00 0.00 0.00 0.00 0.00 0.00 0.00 0.00 0.00 0.00 0.00 0.00 0.00 0.00 0.00 0.00 0.00 0.00 0.01 0.01
0.02 0.02 0.03 0.02 0.01 0.01 0.00 0.00 0.00 0.00 0.00 0.00 0.00 0.00 0.00 0.00 0.00 0.00 0.00 0.00 0.00 0.00 0.00 0.00 0.00 0.00 0.00 0.00 0.00 0.00 0.00 0.00 0.00 0.00 0.00 0.00 0.00 0.00 0.00 0.00 0.00 0.00 0.01 0.01
0.02 0.02 0.02 0.01 0.00 0.00 0.00 0.00 0.00 0.00 0.00 0.00 0.00 0.00 0.00 0.00 0.00 0.00 0.00 0.00 0.00 0.00 0.00 0.00 0.00 0.00 0.00 0.00 0.00 0.00 0.00 0.00 0.00 0.00 0.00 0.00 0.00 0.00 0.00 0.00 0.01 0.01 0.00 0.00
MSLP
1012.48 1012.41 1012.38 1012.43 1012.57 1012.78 1013.05 1013.34 1013.62 1013.86 1014.07 1014.25 1014.42 1014.61 1014.85 1015.16 1015.54 1015.98 1016.43 1016.87 1017.25 1017.53 1017.69 1017.72 1017.62 1017.43 1017.18 1016.90 1016.63 1016.39 1016.19 1016.03 1015.92 1015.83 1015.75 1015.68 1015.62 1015.56 1015.50 1015.45 1015.41 1015.38 1015.34 1015.30
1012.35 1012.23 1012.10 1012.02 1012.01 1012.08 1012.23 1012.45 1012.71 1013.00 1013.31 1013.63 1013.97 1014.33 1014.72 1015.14 1015.60 1016.06 1016.51 1016.91 1017.23 1017.46 1017.57 1017.57 1017.48 1017.30 1017.07 1016.83 1016.58 1016.36 1016.18 1016.02 1015.90 1015.80 1015.72 1015.65 1015.59 1015.54 1015.51 1015.49 1015.48 1015.49 1015.48 1015.47
1012.24 1012.09 1011.90 1011.73 1011.61 1011.58 1011.63 1011.79 1012.03 1012.36 1012.75 1013.18 1013.66 1014.16 1014.68 1015.20 1015.71 1016.19 1016.61 1016.97 1017.23 1017.40 1017.46 1017.44 1017.33 1017.17 1016.98 1016.77 1016.57 1016.38 1016.22 1016.08 1015.95 1015.84 1015.75 1015.66 1015.59 1015.54 1015.50 1015.49 1015.50 1015.51 1015.53 1015.53
1012.14 1012.00 1011.81 1011.59 1011.41 1011.30 1011.30 1011.40 1011.63 1011.97 1012.41 1012.93 1013.50 1014.10 1014.71 1015.30 1015.84 1016.32 1016.71 1017.01 1017.21 1017.31 1017.33 1017.27 1017.16 1017.01 1016.85 1016.69 1016.54 1016.40 1016.27 1016.15 1016.03 1015.91 1015.80 1015.69 1015.60 1015.52 1015.47 1015.45 1015.45 1015.47 1015.49 1015.50
1012.02 1011.92 1011.74 1011.53 1011.33 1011.20 1011.15 1011.23 1011.44 1011.79 1012.25 1012.81 1013.44 1014.10 1014.75 1015.37 1015.92 1016.38 1016.74 1016.98 1017.12 1017.17 1017.14 1017.06 1016.94 1016.81 1016.69 1016.57 1016.47 1016.38 1016.29 1016.20 1016.09 1015.98 1015.85 1015.72 1015.60 1015.50 1015.43 1015.39 1015.37 1015.39 1015.41 1015.43
1011.78 1011.73 1011.60 1011.43 1011.26 1011.13 1011.09 1011.16 1011.37 1011.71 1012.18 1012.75 1013.39 1014.07 1014.74 1015.37 1015.91 1016.35 1016.67 1016.87 1016.97 1016.97 1016.91 1016.81 1016.69 1016.58 1016.49 1016.42 1016.37 1016.32 1016.28 1016.22 1016.14 1016.03 1015.90 1015.76 1015.62 1015.50 1015.40 1015.34 1015.32 1015.33 1015.35 1015.38
1011.34 1011.34 1011.27 1011.17 1011.07 1010.99 1010.99 1011.08 1011.30 1011.64 1012.10 1012.67 1013.31 1013.98 1014.65 1015.26 1015.79 1016.21 1016.51 1016.69 1016.75 1016.73 1016.66 1016.55 1016.45 1016.35 1016.29 1016.26 1016.25 1016.25 1016.25 1016.23 1016.17 1016.08 1015.96 1015.82 1015.67 1015.54 1015.43 1015.36 1015.33 1015.33 1015.36 1015.41
1010.66 1010.70 1010.72 1010.71 1010.69 1010.71 1010.77 1010.91 1011.16 1011.51 1011.97 1012.52 1013.15 1013.80 1014.45 1015.05 1015.57 1015.98 1016.27 1016.45 1016.52 1016.50 1016.43 1016.34 1016.25 1016.18 1016.15 1016.15 1016.18 1016.21 1016.24 1016.25 1016.22 1016.16 1016.05 1015.92 1015.78 1015.64 1015.53 1015.45 1015.42 1015.43 1015.48 1015.54
1009.76 1009.86 1009.95 1010.04 1010.14 1010.26 1010.42 1010.64 1010.93 1011.31 1011.77 1012.32 1012.92 1013.56 1014.18 1014.77 1015.28 1015.70 1016.01 1016.20 1016.30 1016.31 1016.27 1016.21 1016.14 1016.10 1016.10 1016.12 1016.17 1016.23 1016.29 1016.32 1016.32 1016.27 1016.18 1016.06 1015.93 1015.80 1015.69 1015.63 1015.60 1015.62 1015.67 1015.75
1008.75 1008.89 1009.06 1009.27 1009.49 1009.73 1010.00 1010.31 1010.66 1011.08 1011.55 1012.09 1012.68 1013.29 1013.89 1014.47 1014.98 1015.41 1015.75 1015.98 1016.11 1016.18 1016.18 1016.16 1016.14 1016.12 1016.14 1016.18 1016.25 1016.32 1016.39 1016.43 1016.43 1016.40 1016.33 1016.22 1016.10 1015.98 1015.88 1015.82 1015.80 1015.83 1015.89 1015.98
1007.74 1007.93 1008.19 1008.50 1008.85 1009.22 1009.60 1010.00 1010.42 1010.88 1011.37 1011.90 1012.46 1013.05 1013.63 1014.19 1014.70 1015.15 1015.51 1015.79 1015.98 1016.09 1016.15 1016.18 1016.20 1016.21 1016.25 1016.30 1016.36 1016.43 1016.49 1016.53 1016.54 1016.51 1016.44 1016.34 1016.23 1016.12 1016.02 1015.96 1015.95 1015.97 1016.04 1016.12
1006.87 1007.11 1007.45 1007.87 1008.33 1008.82 1009.31 1009.80 1010.29 1010.78 1011.28 1011.80 1012.33 1012.88 1013.43 1013.97 1014.47 1014.92 1015.31 1015.62 1015.86 1016.03 1016.14 1016.21 1016.26 1016.30 1016.34 1016.39 1016.45 1016.50 1016.55 1016.57 1016.57 1016.53 1016.45 1016.35 1016.24 1016.13 1016.04 1015.97 1015.95 1015.97 1016.02 1016.09
1006.19 1006.49 1006.91 1007.43 1007.99 1008.58 1009.17 1009.73 1010.27 1010.79 1011.30 1011.80 1012.30 1012.81 1013.31 1013.81 1014.29 1014.73 1015.13 1015.46 1015.73 1015.93 1016.08 1016.19 1016.26 1016.31 1016.35 1016.39 1016.43 1016.46 1016.48 1016.47 1016.45 1016.39 1016.31 1016.20 1016.08 1015.97 1015.87 1015.80 1015.76 1015.76 1015.79 1015.84
1005.70 1006.06 1006.56 1007.16 1007.82 1008.49 1009.15 1009.77 1010.36 1010.89 1011.39 1011.87 1012.33 1012.79 1013.25 1013.70 1014.14 1014.55 1014.93 1015.27 1015.54 1015.77 1015.93 1016.05 1016.13 1016.18 1016.21 1016.23 1016.24 1016.24 1016.24 1016.21 1016.16 1016.09 1015.99 1015.87 1015.75 1015.63 1015.52 1015.43 1015.38 1015.36 1015.36 1015.38
1005.33 1005.76 1006.33 1007.01 1007.73 1008.47 1009.19 1009.86 1010.46 1011.01 1011.51 1011.96 1012.38 1012.79 1013.19 1013.59 1013.98 1014.36 1014.71 1015.02 1015.29 1015.50 1015.66 1015.78 1015.85 1015.89 1015.90 1015.90 1015.89 1015.86 1015.83 1015.78 1015.71 1015.62 1015.52 1015.40 1015.27 1015.14 1015.03 1014.93 1014.86 1014.81 1014.78 1014.77
1004.97 1005.48 1006.13 1006.86 1007.65 1008.43 1009.19 1009.89 1010.51 1011.06 1011.55 1011.98 1012.37 1012.74 1013.10 1013.45 1013.80 1014.13 1014.44 1014.72 1014.95 1015.15 1015.29 1015.38 1015.44 1015.46 1015.45 1015.43 1015.39 1015.35 1015.29 1015.23 1015.15 1015.06 1014.96 1014.84 1014.72 1014.59 1014.48 1014.37 1014.28 1014.21 1014.16 1014.10
1004.55 1005.14 1005.86 1006.65 1007.48 1008.30 1009.07 1009.79 1010.42 1010.98 1011.46 1011.88 1012.26 1012.60 1012.93 1013.25 1013.56 1013.85 1014.12 1014.37 1014.57 1014.73 1014.85 1014.92 1014.95 1014.95 1014.92 1014.88 1014.82 1014.77 1014.70 1014.63 1014.56 1014.47 1014.38 1014.28 1014.17 1014.06 1013.95 1013.84 1013.74 1013.65 1013.57 1013.48
1004.03 1004.72 1005.50 1006.34 1007.19 1008.03 1008.81 1009.53 1010.16 1010.72 1011.21 1011.63 1012.01 1012.35 1012.67 1012.97 1013.26 1013.53 1013.78 1013.99 1014.17 1014.30 1014.39 1014.44 1014.44 1014.42 1014.38 1014.32 1014.26 1014.19 1014.13 1014.07 1014.00 1013.93 1013.86 1013.78 1013.69 1013.60 1013.50 1013.40 1013.30 1013.19 1013.08 1012.97
1003.47 1004.24 1005.08 1005.95 1006.81 1007.65 1008.42 1009.13 1009.75 1010.31 1010.80 1011.23 1011.62 1011.97 1012.31 1012.62 1012.91 1013.17 1013.41 1013.61 1013.77 1013.88 1013.95 1013.98 1013.97 1013.93 1013.88 1013.81 1013.75 1013.68 1013.62 1013.57 1013.52 1013.47 1013.42 1013.36 1013.29 1013.22 1013.14 1013.05 1012.95 1012.84 1012.71 1012.57
1002.95 1003.81 1004.69 1005.57 1006.43 1007.23 1007.98 1008.65 1009.26 1009.80 1010.29 1010.73 1011.13 1011.51 1011.87 1012.20 1012.51 1012.79 1013.03 1013.23 1013.38 1013.49 1013.55 1013.56 1013.55 1013.50 1013.44 1013.37 1013.30 1013.24 1013.18 1013.13 1013.10 1013.06 1013.03 1012.99 1012.94 1012.89 1012.82 1012.74 1012.65 1012.54 1012.41 1012.26
1002.61 1003.52 1004.43 1005.30 1006.12 1006.87 1007.56 1008.18 1008.75 1009.26 1009.74 1010.18 1010.60 1011.00 1011.38 1011.74 1012.07 1012.37 1012.62 1012.83 1012.99 1013.10 1013.15 1013.17 1013.15 1013.10 1013.03 1012.96 1012.89 1012.82 1012.77 1012.72 1012.68 1012.65 1012.63 1012.60 1012.56 1012.52 1012.47 1012.41 1012.33 1012.23 1012.11 1011.96
1002.52 1003.46 1004.35 1005.19 1005.94 1006.62 1007.23 1007.78 1008.28 1008.75 1009.20 1009.63 1010.05 1010.46 1010.85 1011.23 1011.59 1011.90 1012.18 1012.40 1012.56 1012.67 1012.73 1012.75 1012.72 1012.67 1012.60 1012.53 1012.45 1012.38 1012.32 1012.26 1012.22 1012.18 1012.15 1012.12 1012.09 1012.06 1012.03 1011.98 1011.93 1011.85 1011.75 1011.63
1002.69 1003.62 1004.47 1005.23 1005.90 1006.49 1007.00 1007.46 1007.89 1008.29 1008.69 1009.10 1009.50 1009.91 1010.31 1010.70 1011.06 1011.38 1011.66 1011.89 1012.06 1012.17 1012.23 1012.24 1012.22 1012.17 1012.10 1012.02 1011.93 1011.85 1011.78 1011.71 1011.65 1011.60 1011.56 1011.52 1011.50 1011.48 1011.46 1011.44 1011.41 1011.37 1011.31 1011.22
1003.05 1003.93 1004.71 1005.38 1005.94 1006.42 1006.83 1007.20 1007.54 1007.88 1008.23 1008.59 1008.97 1009.36 1009.75 1010.13 1010.48 1010.80 1011.07 1011.29 1011.45 1011.56 1011.61 1011.63 1011.60 1011.55 1011.48 1011.39 1011.30 1011.21 1011.12 1011.04 1010.97 1010.90 1010.85 1010.82 1010.79 1010.78 1010.78 1010.79 1010.81 1010.82 1010.81 1010.78
1003.46 1004.26 1004.94 1005.50 1005.96 1006.34 1006.65 1006.94 1007.21 1007.49 1007.79 1008.11 1008.46 1008.82 1009.19 1009.54 1009.87 1010.17 1010.41 1010.61 1010.75 1010.85 1010.89 1010.89 1010.87 1010.81 1010.74 1010.66 1010.57 1010.48 1010.39 1010.30 1010.22 1010.15 1010.10 1010.07 1010.05 1010.06 1010.10 1010.15 1010.21 1010.28 1010.34 1010.38
1003.77 1004.46 1005.03 1005.49 1005.86 1006.15 1006.39 1006.61 1006.84 1007.08 1007.35 1007.64 1007.96 1008.30 1008.63 1008.95 1009.25 1009.51 1009.72 1009.88 1009.99 1010.06 1010.09 1010.08 1010.05 1010.00 1009.94 1009.87 1009.79 1009.71 1009.64 1009.56 1009.50 1009.44 1009.40 1009.39 1009.40 1009.44 1009.51 1009.61 1009.73 1009.86 1010.00 1010.12
1003.82 1004.40 1004.88 1005.25 1005.55 1005.78 1005.99 1006.19 1006.40 1006.63 1006.90 1007.19 1007.49 1007.81 1008.12 1008.40 1008.66 1008.87 1009.04 1009.16 1009.23 1009.27 1009.28 1009.27 1009.24 1009.20 1009.15 1009.11 1009.06 1009.02 1008.98 1008.94 1008.91 1008.89 1008.89 1008.91 1008.96 1009.05 1009.16 1009.31 1009.49 1009.68 1009.88 1010.06
Thickness
5720 5728 5729 5727 5727 5729 5723 5719 5709 5708 5704 5702 5702 5699 5694 5691 5687 5682 5676 5670 5664 5657 5651 5646 5640 5636 5632 5628 5625 5621 5616 5612 5608 5605 5602 5600 5597 5594 5592 5591 5589 5588 5586 5585
5711 5723 5727 5725 5728 5727 5724 5722 5715 5710 5702 5707 5704 5699 5693 5688 5682 5675 5670 5665 5660 5653 5647 5641 5636 5631 5627 5623 5619 5615 5610 5606 5603 5600 5597 5594 5592 5589 5587 5585 5583 5581 5580 5579
5697 5714 5716 5708 5721 5723 5722 5722 5714 5702 5701 5705 5697 5691 5686 5682 5678 5672 5667 5662 5656 5649 5643 5637 5632 5627 5623 5619 5615 5610 5606 5602 5598 5595 5593 5590 5588 5585 5582 5579 5578 5576 5575 5573
5695 5697 5682 5709 5734 5731 5721 5716 5714 5708 5706 5703 5696 5690 5687 5683 5677 5670 5664 5658 5651 5645 5639 5634 5629 5624 5620 5615 5611 5606 5602 5598 5595 5592 5589 5586 5583 5580 5577 5576 5574 5572 5571 5569
5689 5684 5692 5712 5725 5726 5713 5705 5713 5707 5704 5701 5696 5687 5681 5679 5676 5668 5662 5655 5648 5642 5636 5630 5625 5621 5617 5612 5607 5603 5599 5595 5592 5589 5586 5583 5580 5577 5574 5573 5571 5570 5569 5568
5687 5678 5676 5701 5724 5731 5715 5694 5710 5708 5701 5698 5692 5678 5672 5674 5671 5665 5658 5651 5645 5640 5633 5627 5622 5618 5612 5607 5603 5599 5596 5593 5589 5586 5583 5579 5577 5574 5572 5571 5569 5569 5568 5567
5685 5680 5690 5713 5725 5723 5692 5690 5707 5707 5702 5696 5688 5681 5676 5672 5666 5660 5653 5648 5642 5637 5630 5624 5619 5614 5609 5605 5601 5598 5594 5590 5587 5584 5580 5578 5575 5573 5571 5569 5568 5567 5566 5565
5687 5678 5682 5716 5717 5705 5698 5707 5708 5705 5701 5692 5685 5679 5674 5667 5661 5655 5649 5644 5639 5633 5627 5622 5618 5613 5607 5603 5600 5597 5593 5588 5585 5582 5579 5577 5574 5571 5570 5568 5567 5566 5564 5563
5689 5688 5703 5713 5712 5712 5713 5707 5705 5701 5699 5691 5682 5675 5670 5663 5657 5652 5647 5641 5636 5631 5625 5620 5617 5613 5607 5603 5600 5596 5591 5587 5583 5580 5578 5575 5572 5570 5569 5568 5566 5566 5564 5563
5692 5697 5704 5710 5714 5713 5711 5707 5705 5701 5696 5690 5681 5674 5667 5661 5655 5650 5645 5639 5635 5630 5624 5619 5616 5613 5608 5604 5600 5595 5590 5586 5583 5580 5578 5576 5574 5572 5570 5568 5566 5565 5564 5562
5690 5696 5700 5704 5706 5707 5706 5704 5702 5698 5695 5688 5681 5673 5666 5660 5654 5649 5644 5639 5634 5629 5624 5619 5616 5612 5609 5604 5600 5594 5590 5587 5584 5582 5580 5577 5575 5572 5571 5568 5566 5564 5563 5563
5687 5697 5697 5696 5703 5705 5701 5699 5697 5692 5689 5686 5680 5673 5666 5659 5654 5649 5644 5639 5634 5629 5625 5620 5616 5612 5609 5605 5601 5595 5590 5587 5586 5584 5582 5580 5578 5575 5572 5570 5567 5565 5563 5560
5700 5704 5702 5701 5703 5702 5699 5698 5695 5690 5686 5682 5678 5672 5665 5659 5654 5649 5644 5639 5635 5630 5626 5622 5617 5613 5610 5606 5602 5597 5593 5590 5588 5586 5584 5582 5580 5577 5575 5572 5570 5567 5565 5562
5703 5701 5697 5698 5697 5698 5697 5696 5692 5688 5685 5681 5676 5671 5665 5659 5654 5649 5645 5641 5637 5632 5628 5623 5619 5615 5612 5608 5604 5599 5596 5592 5590 5588 5586 5585 5583 5581 5580 5578 5575 5572 5570 5566
5700 5702 5699 5698 5696 5694 5693 5691 5687 5684 5682 5678 5674 5669 5664 5658 5653 5650 5647 5643 5639 5633 5629 5625 5621 5617 5614 5610 5606 5601 5598 5596 5593 5591 5589 5588 5587 5585 5583 5581 5579 5577 5576 5572
5698 5700 5698 5694 5692 5691 5690 5688 5685 5682 5680 5676 5672 5668 5664 5660 5655 5651 5648 5644 5638 5634 5630 5627 5622 5620 5617 5613 5608 5604 5600 5597 5594 5593 5593 5592 5591 5589 5587 5585 5583 5581 5579 5578
5694 5692 5692 5690 5689 5689 5689 5688 5686 5683 5680 5676 5672 5668 5664 5660 5655 5651 5648 5646 5641 5637 5633 5629 5625 5623 5620 5616 5611 5608 5606 5603 5598 5596 5596 5595 5593 5591 5589 5588 5586 5585 5583 5583
5700 5699 5697 5694 5691 5689 5690 5689 5687 5684 5680 5678 5674 5670 5665 5660 5655 5652 5650 5647 5643 5638 5635 5632 5629 5625 5622 5619 5615 5612 5610 5608 5605 5602 5601 5598 5595 5593 5592 5590 5588 5587 5587 5585
5700 5699 5698 5695 5694 5691 5689 5688 5688 5685 5682 5679 5674 5669 5665 5662 5658 5655 5652 5648 5643 5639 5636 5635 5630 5627 5624 5621 5617 5614 5612 5610 5608 5606 5603 5599 5597 5596 5594 5592 5591 5590 5589 5587
5700 5700 5698 5696 5695 5692 5690 5689 5689 5685 5683 5679 5675 5670 5666 5663 5661 5657 5654 5650 5647 5645 5642 5638 5633 5629 5626 5624 5619 5618 5617 5614 5611 5608 5605 5602 5599 5597 5595 5594 5593 5591 5588 5586
5699 5700 5698 5696 5695 5694 5692 5691 5689 5685 5683 5680 5675 5671 5668 5666 5663 5660 5655 5652 5651 5649 5645 5639 5636 5632 5630 5627 5621 5622 5620 5617 5614 5610 5607 5603 5601 5599 5596 5594 5592 5590 5588 5585
5698 5698 5698 5697 5695 5693 5692 5692 5690 5687 5684 5680 5678 5674 5670 5667 5665 5663 5660 5657 5654 5649 5647 5645 5641 5636 5633 5628 5627 5626 5624 5621 5617 5613 5608 5605 5602 5599 5596 5593 5591 5589 5587 5585
5697 5698 5698 5696 5695 5693 5692 5692 5691 5688 5685 5682 5679 5676 5673 5670 5668 5665 5661 5660 5658 5651 5649 5648 5643 5637 5633 5630 5630 5629 5626 5622 5618 5614 5611 5608 5604 5600 5597 5594 5592 5589 5586 5583
5695 5697 5698 5697 5696 5692 5690 5692 5691 5689 5687 5685 5683 5680 5676 5673 5671 5671 5669 5663 5658 5652 5652 5648 5643 5639 5633 5634 5633 5631 5627 5623 5619 5616 5613 5609 5606 5602 5599 5595 5591 5588 5585 5582
5694 5696 5696 5695 5692 5692 5692 5692 5690 5688 5687 5686 5685 5683 5681 5678 5676 5675 5672 5667 5660 5654 5654 5649 5644 5640 5637 5637 5635 5632 5629 5624 5621 5616 5612 5609 5606 5603 5599 5595 5591 5587 5584 5581
5693 5695 5695 5695 5696 5697 5697 5695 5693 5691 5690 5688 5687 5685 5684 5682 5680 5677 5674 5670 5664 5658 5657 5654 5649 5643 5642 5640 5637 5634 5629 5625 5621 5617 5613 5609 5606 5602 5597 5592 5589 5585 5581 5578
5692 5695 5694 5696 5697 5700 5701 5699 5697 5695 5694 5692 5689 5688 5686 5684 5681 5679 5676 5672 5668 5663 5660 5658 5656 5651 5647 5643 5639 5635 5631 5627 5622 5617 5612 5608 5603 5599 5594 5591 5586 5582 5578 5574